GW3620 Weather Reports


Display with metric or nautical units.
time (UTC)temp
F
wind
direction
speed
MPH
gust
MPH
rain 1hr
in
rain 24hr
in
rain mn
in
humidity
%
barometer
mb
20260903092032 81 0 0.0 0.0 0.00 0.00 0.00 64 1015.3
20260903091104 81 0 0.0 0.0 0.00 0.00 0.00 64 1015.1
20260903090030 81 0 0.0 0.0 0.00 0.00 0.00 64 1015.0
20260903085032 81 0 0.0 0.0 0.00 0.00 0.00 63 1015.0
20260903084107 82 0 0.0 0.0 0.00 0.00 0.00 62 1015.1
20260903083032 82 0 0.0 0.0 0.00 0.00 0.00 62 1015.2
20260903082106 82 79 0.0 3.0 0.00 0.00 0.00 62 1015.2
20260903081037 82 79 0.0 3.0 0.00 0.00 0.00 62 1015.3
20260903080030 82 0 0.0 0.0 0.00 0.00 0.00 63 1015.3
20260903075032 82 0 0.0 0.0 0.00 0.00 0.00 63 1015.3
20260903074032 82 0 0.0 0.0 0.00 0.00 0.00 63 1015.3
20260903073032 82 0 0.0 0.0 0.00 0.00 0.00 63 1015.2
20260903072049 82 0 0.0 0.0 0.00 0.00 0.00 62 1015.2
20260903071032 82 0 0.0 0.0 0.00 0.00 0.00 61 1015.4
20260903070032 83 0 0.0 0.0 0.00 0.00 0.00 61 1015.2
20260903065030 83 0 0.0 0.0 0.00 0.00 0.00 59 1015.2
20260903064032 83 79 0.0 3.0 0.00 0.00 0.00 58 1015.3
20260903063032 84 280 0.0 3.0 0.00 0.00 0.00 55 1015.3
20260903062032 84 278 0.0 3.0 0.00 0.00 0.00 54 1015.3
20260903061032 84 75 1.0 4.0 0.00 0.00 0.00 53 1015.2
20260903060032 84 69 2.0 6.0 0.00 0.00 0.00 52 1015.3
20260903055032 84 63 1.0 6.0 0.00 0.00 0.00 52 1015.3
20260903054030 84 72 1.0 6.0 0.00 0.00 0.00 51 1015.3
20260903053032 84 73 1.0 6.0 0.00 0.00 0.00 51 1015.4
20260903052049 84 25 2.0 7.0 0.00 0.00 0.00 51 1015.4
20260903051049 85 33 2.0 7.0 0.00 0.00 0.00 51 1015.5
20260903050049 85 5 2.0 6.0 0.00 0.00 0.00 50 1015.5
20260903045032 85 48 2.0 7.0 0.00 0.00 0.00 49 1015.5
20260903044032 86 16 2.0 7.0 0.00 0.00 0.00 48 1015.2
20260903043030 86 10 2.0 9.0 0.00 0.00 0.00 48 1014.7
20260903042106 86 9 2.0 7.0 0.00 0.00 0.00 48 1014.7
20260903041032 86 4 1.0 4.0 0.00 0.00 0.00 48 1014.9
20260903040032 86 2 1.0 6.0 0.00 0.00 0.00 47 1014.8
20260903035032 86 323 2.0 7.0 0.00 0.00 0.00 47 1014.8
20260903034049 86 348 1.0 6.0 0.00 0.00 0.00 46 1014.8
20260903033047 86 15 0.0 3.0 0.00 0.00 0.00 45 1014.5
20260903032047 86 5 1.0 4.0 0.00 0.00 0.00 45 1014.5
20260903031049 87 330 2.0 7.0 0.00 0.00 0.00 46 1014.6
20260903030032 87 0 1.0 4.0 0.00 0.00 0.00 46 1014.5
20260903025032 87 4 0.0 3.0 0.00 0.00 0.00 46 1014.5
20260903024032 87 10 0.0 3.0 0.00 0.00 0.00 46 1014.3
20260903023032 87 344 0.0 3.0 0.00 0.00 0.00 46 1014.1
20260903022030 87 336 2.0 7.0 0.00 0.00 0.00 46 1014.1
20260903021032 88 341 3.0 9.0 0.00 0.00 0.00 46 1014.6
20260903015032 89 336 1.0 4.0 0.00 0.00 0.00 45 1014.9
20260903014032 89 340 1.0 6.0 0.00 0.00 0.00 44 1014.3
20260903013032 90 352 1.0 3.0 0.00 0.00 0.00 42 1014.3
20260903012032 90 0 0.0 0.0 0.00 0.00 0.00 41 1014.3
20260903011030 91 270 2.0 7.0 0.00 0.00 0.00 40 1014.5
20260903010049 91 270 3.0 10.0 0.00 0.00 0.00 40 1014.3
20260903005032 92 88 5.0 10.0 0.00 0.00 0.00 40 1014.3
20260903004049 92 89 6.0 10.0 0.00 0.00 0.00 40 1014.3
20260903003032 92 81 4.0 13.0 0.00 0.00 0.00 39 1014.6
20260903002047 91 76 0.0 6.0 0.00 0.00 0.00 39 1014.6
20260903001032 91 20 1.0 7.0 0.00 0.00 0.00 39 1014.5
20260902235049 91 16 0.0 3.0 0.00 0.00 0.00 39 1014.6
20260902233049 91 55 1.0 6.0 0.00 0.00 0.00 41 1014.5
20260902232107 91 88 0.0 4.0 0.00 0.00 0.00 41 1014.5
20260902231032 91 284 0.0 1.0 0.00 0.00 0.00 40 1014.9
20260902230032 92 290 2.0 6.0 0.00 0.00 0.00 40 1014.8
20260902225030 92 297 0.0 6.0 0.00 0.00 0.00 40 1014.8
20260902224049 92 86 2.0 6.0 0.00 0.00 0.00 40 1015.0
20260902223032 92 87 2.0 7.0 0.00 0.00 0.00 40 1015.1
20260902221032 92 86 4.0 7.0 0.00 0.00 0.00 39 1015.2
20260902220032 92 88 4.0 12.0 0.00 0.00 0.00 40 1015.3
20260902215047 93 270 4.0 10.0 0.00 0.00 0.00 39 1015.3
20260902214030 94 88 5.0 13.0 0.00 0.00 0.00 39 1015.0
20260902213049 94 277 6.0 10.0 0.00 0.00 0.00 39 1015.3
20260902212049 94 86 1.0 7.0 0.00 0.00 0.00 38 1015.3
20260902211032 94 77 6.0 16.0 0.00 0.00 0.00 38 1015.5
20260902210032 94 273 5.0 12.0 0.00 0.00 0.00 38 1015.6
20260902205049 94 271 7.0 12.0 0.00 0.00 0.00 38 1015.6
20260902204030 94 286 1.0 9.0 0.00 0.00 0.00 38 1015.7
20260902203032 93 271 4.0 10.0 0.00 0.00 0.00 39 1015.8
20260902202032 93 281 5.0 12.0 0.00 0.00 0.00 41 1015.8
20260902201032 93 88 3.0 12.0 0.00 0.00 0.00 42 1016.2
20260902200032 92 84 2.0 9.0 0.00 0.00 0.00 43 1016.7
20260902195032 92 69 5.0 9.0 0.00 0.00 0.00 44 1016.7
20260902194032 92 273 5.0 13.0 0.00 0.00 0.00 45 1017.0
20260902193047 91 277 6.0 10.0 0.00 0.00 0.00 45 1016.9
20260902192047 91 77 5.0 13.0 0.00 0.00 0.00 46 1016.9
20260902191032 91 61 4.0 10.0 0.00 0.00 0.00 45 1017.3
20260902190032 91 271 3.0 12.0 0.00 0.00 0.00 46 1017.5
20260902185051 90 88 2.0 10.0 0.00 0.00 0.00 47 1017.5
20260902184032 90 85 7.0 12.0 0.00 0.00 0.00 47 1017.7
20260902183106 90 277 2.0 7.0 0.00 0.00 0.00 47 1018.0
20260902182047 90 287 1.0 7.0 0.00 0.00 0.00 47 1018.0
20260902181030 89 83 6.0 10.0 0.00 0.00 0.00 47 1017.9
20260902180049 89 70 2.0 7.0 0.00 0.00 0.00 47 1018.1
20260902175032 89 65 3.0 6.0 0.00 0.00 0.00 48 1018.1
20260902174106 89 84 2.0 9.0 0.00 0.00 0.00 49 1018.2
20260902173032 88 345 0.0 3.0 0.00 0.00 0.00 49 1018.3
20260902171030 88 295 2.0 10.0 0.00 0.00 0.00 49 1018.3
20260902170032 88 89 4.0 12.0 0.00 0.00 0.00 49 1018.3
20260902164032 87 70 0.0 6.0 0.00 0.00 0.00 51 1018.2
20260902163032 87 65 1.0 4.0 0.00 0.00 0.00 51 1018.2
20260902162106 86 15 1.0 7.0 0.00 0.00 0.00 53 1018.2
20260902161049 86 52 1.0 4.0 0.00 0.00 0.00 55 1018.1
20260902160030 85 30 1.0 6.0 0.00 0.00 0.00 57 1018.1
20260902155032 84 342 1.0 3.0 0.00 0.00 0.00 58 1018.1
20260902154056 84 8 2.0 6.0 0.00 0.00 0.00 58 1018.3
20260902153049 84 358 1.0 7.0 0.00 0.00 0.00 58 1018.3
20260902152032 83 339 1.0 4.0 0.00 0.00 0.00 59 1018.3
20260902151032 83 321 2.0 7.0 0.00 0.00 0.00 60 1018.3
20260902150030 82 0 0.0 3.0 0.00 0.00 0.00 61 1018.3
20260902145030 81 40 0.0 3.0 0.00 0.00 0.00 63 1018.3
20260902144032 80 0 0.0 0.0 0.00 0.00 0.00 67 1018.4
20260902143049 79 0 0.0 0.0 0.00 0.00 0.00 70 1018.4
20260902142034 78 0 0.0 0.0 0.00 0.00 0.00 72 1018.4
20260902141047 77 0 0.0 0.0 0.00 0.00 0.00 74 1017.8
20260902140030 75 0 0.0 0.0 0.00 0.00 0.00 76 1018.3
20260902135048 74 0 0.0 0.0 0.00 0.00 0.00 79 1018.3
20260902134030 74 0 0.0 0.0 0.00 0.00 0.00 79 1018.2
20260902133030 74 0 0.0 0.0 0.00 0.00 0.00 78 1018.1
20260902132030 74 0 0.0 0.0 0.00 0.00 0.00 77 1018.1
20260902131030 75 0 0.0 0.0 0.00 0.00 0.00 76 1017.5
20260902130030 75 0 0.0 0.0 0.00 0.00 0.00 75 1017.2
20260902125030 75 0 0.0 0.0 0.00 0.00 0.00 74 1017.2
20260902124047 76 37 0.0 3.0 0.00 0.00 0.00 73 1017.1
20260902123030 76 0 0.0 0.0 0.00 0.00 0.00 72 1017.0
20260902122030 76 0 0.0 0.0 0.00 0.00 0.00 72 1017.0
20260902121030 76 0 0.0 0.0 0.00 0.00 0.00 71 1016.9
20260902120030 76 0 0.0 0.0 0.00 0.00 0.00 71 1016.8
20260902115030 75 0 0.0 0.0 0.00 0.00 0.00 71 1016.8
20260902114030 75 0 0.0 0.0 0.00 0.00 0.00 71 1016.9
20260902113030 75 0 0.0 0.0 0.00 0.00 0.00 72 1016.9
20260902112047 75 0 0.0 0.0 0.00 0.00 0.00 73 1016.9
20260902111030 75 0 0.0 0.0 0.00 0.00 0.00 73 1016.7
20260902110032 75 313 0.0 1.0 0.00 0.00 0.00 74 1016.8
20260902105030 75 0 0.0 0.0 0.00 0.00 0.00 74 1016.8
20260902104047 75 0 0.0 0.0 0.00 0.00 0.00 75 1017.0
20260902103032 75 0 0.0 0.0 0.00 0.00 0.00 75 1017.0
20260902102030 75 0 0.0 0.0 0.00 0.00 0.00 75 1017.0
20260902101032 75 0 0.0 0.0 0.00 0.00 0.00 75 1016.9
20260902100032 76 0 0.0 0.0 0.00 0.00 0.00 74 1016.9
20260902095032 76 286 0.0 1.0 0.00 0.00 0.00 74 1016.9
20260902094032 76 0 0.0 0.0 0.00 0.00 0.00 73 1017.0
20260902093049 76 0 0.0 0.0 0.00 0.00 0.00 73 1016.9